Location: Buch
(49.7331°N, 12.1098°E)
Time: 00:54:38
(UTC+00:00)

ARIANE 5 R/B - Pass Details

Date: 12 May 2021
Orbit: 620 x 656 km, 98.1° (Epoch: 13 June)

Event Time Altitude Azimuth Distance (km) Brightness Sun altitude
Exits shadow 19:37:55 10° 130° (SE) 2,014 4.5 -7.7°
Reaches altitude 10° 19:37:59 10° 130° (SE) 1,988 4.5 -7.7°
Maximum altitude 19:41:52 34° 66° (ENE) 1,041 3.5 -8.1°
Drops below altitude 10° 19:45:46 10° 2° (N) 2,002 5.8 -8.6°
Sets 19:48:07 0° 353° (N) 2,915 6.9 -8.9°
